Terminal Aerodrome Forecast
Issued by NWS Sterling, VA

Current Version | Previous Version | Graphics & Text | Print | Product List | Glossary On
Versions: 1 2 3 4 5 6 7 8 9 10 11 12 13 14 15 16 17 18 19 20 21
000
FTUS41 KLWX 251448 AAA
TAFIAD
TAF AMD
KIAD 251448Z 2515/2618 20012G22KT P6SM FEW050 SCT200
     FM260000 18008KT P6SM SCT200
     FM261400 21008G16KT P6SM BKN050 BKN100=

USA.gov is the U.S. government's official web portal to all federal, state and local government web resources and services.